Regional Weather Roundup
Issued by NWS Goodland, KS

Home | Current Version | Previous Version | Graphics & Text | Print | Product List | Glossary On
Versions: 1 2 3 4 5 6 7 8 9 10 11 12 13 14 15 16 17 18 19 20 21 22 23 24 25 26 27 28 29 30 31 32 33 34 35 36 37 38 39 40 41 42 43 44 45 46 47 48 49 50
357
ASUS43 KGLD 230608
RWRGLD

GOODLAND FORECAST AREA HOURLY WEATHER ROUNDUP
NATIONAL WEATHER SERVICE GOODLAND KS
1200 AM MDT MON APR 23 2018

...OFFICIAL OBSERVATIONS...

CITY           SKY/WX    TMP DP  RH WIND       PRES   REMARKS
GOODLAND KS    CLEAR     40  35  83 S6        30.18S
HILL CITY KS   CLEAR     39  36  89 W5        30.19R
IMPERIAL NEB   CLEAR     40  37  89 SE3       30.18S
MCCOOK NEB     CLEAR     42  35  76 CALM      30.18S
AKRON CO       CLEAR     40  36  86 S12       30.16S
BURLINGTON CO  CLEAR     37  34  89 S12       30.19S
LIMON CO       CLEAR     36  33  89 S6        30.19S
$$

...UNOFFICIAL OBSERVATIONS...

CITY           SKY/WX    TMP DP  RH WIND       PRES   REMARKS
COLBY KS       CLEAR     36  36 100 SW3       30.20R
NORTON KS      CLEAR     39  36  87 W5        30.18
KIT CARSON CO    N/A     38  34  85 CALM        N/A
YUMA CO        FAIR      34  28  80 S7        30.17S
$$




USA.gov is the U.S. government's official web portal to all federal, state and local government web resources and services.